Regional Weather Roundup
Issued by NWS Jackson, KY

Home | Current Version | Previous Version | Graphics & Text | Print | Product List | Glossary On
Versions: 1 2 3 4 5 6 7 8 9 10 11 12 13 14 15 16 17 18 19 20 21 22 23 24 25 26 27 28 29 30 31 32 33 34 35 36 37 38 39 40 41 42 43 44 45 46 47 48 49 50
000
ASUS43 KJKL 070210
RWRJKL

EAST KENTUCKY HOURLY WEATHER ROUNDUP
NATIONAL WEATHER SERVICE JACKSON KY
900 PM EST SAT FEB 06 2016

NOTE: "FAIR" INDICATES FEW OR NO CLOUDS BELOW 12,000 FEET WITH
NO SIGNIFICANT WEATHER AND/OR OBSTRUCTIONS TO VISIBILITY.

* THESE REPORTS ARE NOT UNDER NWS QUALITY CONTROL AND MAY NOT
  REPORT WEATHER SUCH AS PRECIPITATION AND FOG.

KYZ079-080-083-085-087-088-110-112-115-119-120-070300
...EASTERN KENTUCKY...

CITY           SKY/WX    TMP DP  RH WIND       PRES   REMARKS
JACKSON        CLEAR     40  20  44 CALM      30.25S
LONDON         CLOUDY    36  23  59 CALM      30.26F
SOMERSET*      CLEAR     34  23  64 CALM      30.29S
MONTICELLO*    MOCLDY    30  25  81 N8        30.29F WCI  22
WILLIAMSBURG*  CLOUDY    37  23  56 CALM      30.27S
MIDDLESBORO*   PTCLDY    36  26  66 CALM      30.28S
HARLAN APT*      N/A     36  21  55 CALM      30.26F
BIG SANDY*     MOCLDY    43  21  42 CALM      30.26R
MOREHEAD APT*  CLEAR     43  23  45 SW5       30.28S
$$

KYZ035-036-041-042-044-050-067-078-099-070300
...CENTRAL KENTUCKY...

CITY           SKY/WX    TMP DP  RH WIND       PRES   REMARKS
MT STERLING*   CLEAR     32  27  80 CALM      30.27F
DANVILLE*      CLEAR     34  25  69 CALM      30.28S
RICHMOND*      CLEAR     39  21  48 S3        30.26F
LEXINGTON      CLEAR     37  23  56 S5        30.26F WCI  33
FRANKFORT      CLEAR     32  23  69 CALM      30.25F
$$

KYZ091>093-OHZ055-061-077-WVZ005-015-034-035-042-070300
...SOUTHERN OHIO/WEST VIRGINIA...

CITY           SKY/WX    TMP DP  RH WIND       PRES   REMARKS
COVINGTON      CLEAR     33  26  75 S3        30.24S
COLUMBUS       CLEAR     32  17  54 S3        30.23F
DAYTON         CLEAR     33  23  66 S5        30.22F WCI  29
WILMINGTON     CLEAR     31  23  72 S3        30.23S
HUNTINGTON       N/A     42  21  43 CALM      30.25F
CHARLESTON     CLOUDY    39  23  52 N3        30.25S
PINEVILLE*       N/A     33  23  66 MISG      30.29F
BECKLEY          N/A     36  16  44 SW3       30.22F
$$

VAZ002-007-008-TNZ017-027-036-066-071-070300
...SOUTHWEST VIRGINIA/EAST TENNESSEE...

CITY           SKY/WX    TMP DP  RH WIND       PRES   REMARKS
BRISTOL        MOCLDY    31  23  72 CALM      30.26F
OAK RIDGE      PTCLDY    40  25  55 CALM      30.29R
CROSSVILLE     CLOUDY    36  20  52 CALM      30.26S
NASHVILLE      PTCLDY    39  22  50 S3        30.30S
$$

...KEY TO REMARKS...
VSB - VISIBILITY IN MILES
WCI - WIND CHILL INDEX
HX  - HEAT INDEX

$$



USA.gov is the U.S. government's official web portal to all federal, state and local government web resources and services.